Date,TemperatureHighF,TemperatureAvgF,TemperatureLowF,DewpointHighF,DewpointAvgF,DewpointLowF,HumidityHigh,HumidityAvg,HumidityLow,PressureMaxIn,PressureMinIn,WindSpeedMaxMPH,WindSpeedAvgMPH,GustSpeedMaxMPH,PrecipitationSumIn
2013-1-1,41.6,28.3,26.9,33.7,10.8,-99.9,98,76,69,30.56,30.41,9,-148,9,0.00
2013-1-2,45.9,32.3,31.0,28.4,5.2,-99.9,86,48,42,30.41,30.24,16,-146,16,0.00
2013-1-3,44.9,32.1,31.5,32.6,4.2,-99.9,90,47,41,30.26,30.15,21,-147,21,0.05
2013-1-4,47.5,40.1,34.5,44.9,38.8,32.8,100,95,84,30.39,30.22,5,1,10,0.08
2013-1-5,43.5,33.3,36.9,38.2,9.7,-99.9,95,65,68,30.26,30.17,16,-186,16,0.08
2013-1-6,43.9,33.1,36.3,41.4,12.7,-99.9,97,76,89,30.26,30.04,11,-183,11,0.16
2013-1-7,48.8,33.6,38.9,47.0,6.0,-99.9,100,69,86,30.22,29.89,34,-244,34,0.12
2013-1-8,53.3,35.6,40.1,48.7,9.2,-99.9,98,69,80,30.23,29.81,37,-236,37,0.24
2013-1-9,48.8,40.2,32.5,47.7,38.9,32.3,100,83,1,30.00,29.73,18,3,18,0.29
2013-1-10,36.3,27.4,29.5,34.7,7.1,-99.9,99,77,91,30.18,30.00,9,-193,9,0.05
2013-1-11,37.5,26.0,25.0,31.3,11.4,-99.9,100,80,65,30.39,30.17,6,-128,6,0.01
2013-1-12,35.1,24.2,22.8,30.5,8.7,-99.9,100,78,71,30.51,30.38,10,-131,10,0.00
2013-1-13,33.8,25.4,20.8,27.1,14.5,-99.9,97,81,71,30.57,30.50,6,-79,6,0.00
2013-1-14,36.5,28.3,28.9,30.7,11.7,-99.9,93,74,74,30.63,30.54,5,-131,5,0.00
2013-1-15,42.7,31.0,29.5,34.3,14.4,-99.9,96,74,70,30.76,30.63,10,-130,10,0.00
2013-1-16,42.2,28.5,26.2,35.6,13.4,-99.9,98,80,76,30.74,30.57,8,-131,8,0.00
2013-1-17,38.5,27.4,25.7,35.5,17.0,-99.9,100,87,88,30.59,30.36,9,-96,9,0.00
2013-1-18,34.8,26.2,24.8,34.5,12.7,-99.9,100,86,97,30.41,30.32,8,-131,8,0.00
2013-1-19,31.9,24.4,27.4,31.7,6.8,-99.9,100,81,98,30.45,30.40,4,-173,4,0.00
2013-1-20,50.0,31.6,26.4,50.0,31.3,25.9,99,93,50,30.46,30.33,3,0,4,0.00
2013-1-21,32.5,25.5,26.1,32.3,12.1,-99.9,99,86,97,30.34,30.20,7,-131,7,0.00
2013-1-22,36.9,27.9,23.9,36.4,17.3,-99.9,100,88,97,30.21,29.97,6,-103,6,0.00
2013-1-23,44.8,34.6,35.1,39.7,15.2,-99.9,99,70,53,30.20,29.91,16,-147,16,0.17
2013-1-24,45.4,33.9,35.2,39.4,13.4,-99.9,97,73,68,30.27,30.11,12,-176,12,0.16
2013-1-25,49.9,36.2,40.4,46.1,16.3,-99.9,98,76,79,30.12,29.98,7,-183,7,0.18
2013-1-26,45.4,36.0,37.3,40.2,19.6,-99.9,98,77,76,30.09,29.93,22,-127,22,0.05
2013-1-27,40.4,32.0,37.5,38.4,14.4,-99.9,100,80,92,30.13,30.06,19,-164,19,0.21
2013-1-28,40.6,32.9,36.9,40.1,15.9,-99.9,98,81,96,30.17,30.07,14,-163,14,0.48
2013-1-29,44.9,34.6,40.1,44.4,13.7,-99.9,100,78,95,30.43,30.16,17,-201,18,0.41
2013-1-30,46.6,36.9,42.9,46.3,17.6,-99.9,99,80,97,30.45,30.39,14,-188,14,0.19
2013-1-31,48.1,36.2,44.5,46.0,12.4,-99.9,100,75,91,30.46,30.36,11,-214,11,0.17
2013-2-1,50.1,37.3,39.8,46.0,19.1,-99.9,100,78,82,30.46,30.39,11,-169,11,0.01
2013-2-2,39.9,38.0,33.7,39.5,37.7,33.3,99,99,98,30.44,30.31,8,1,8,0.01
2013-2-3,45.8,41.5,32.9,43.0,40.6,32.7,100,97,89,30.38,30.27,8,1,8,0.08
2013-2-4,51.9,38.8,41.7,44.7,21.7,-99.9,100,77,75,30.28,29.93,9,-147,9,0.00
2013-2-5,48.9,44.5,42.4,44.3,42.1,40.3,97,91,77,30.02,29.90,22,4,22,0.29
2013-2-6,49.8,44.2,41.1,42.2,40.4,38.6,97,87,68,30.12,29.85,19,5,21,0.10
2013-2-7,48.7,41.7,32.8,41.8,35.9,31.5,96,81,55,30.24,29.85,27,3,27,0.10
2013-2-8,43.1,37.4,30.6,38.5,34.8,29.9,98,91,76,30.37,30.25,7,1,7,0.01
2013-2-9,43.3,39.7,37.1,40.9,38.2,35.4,98,94,84,30.40,30.32,7,0,7,0.02
2013-2-10,44.9,39.5,31.3,40.9,36.8,30.8,99,90,72,30.44,30.38,11,1,11,0.01
2013-2-11,45.9,35.3,37.2,41.5,16.1,-99.9,96,74,76,30.42,30.39,10,-164,10,0.00
2013-2-12,48.8,38.2,42.3,45.9,20.1,-99.9,99,78,86,30.47,30.37,25,-163,25,0.04
2013-2-13,47.3,36.6,43.3,44.6,14.6,-99.9,96,70,82,30.51,30.36,27,-187,27,0.01
2013-2-14,50.0,45.4,41.1,50.0,43.7,38.9,97,88,50,30.61,30.55,6,1,7,0.01
2013-2-15,59.1,39.3,37.6,48.1,25.7,-99.9,100,81,66,30.60,30.24,11,-113,11,0.00
2013-2-16,50.2,38.5,37.8,43.2,21.7,-99.9,99,74,66,30.27,30.18,28,-125,29,0.00
2013-2-17,45.4,37.4,38.9,38.9,22.6,-99.9,94,74,68,30.31,30.17,13,-94,13,0.00
2013-2-18,45.0,39.5,35.5,38.6,36.0,34.0,97,88,70,30.17,29.82,12,1,12,0.00
2013-2-19,49.3,40.3,33.8,37.1,34.6,32.2,95,81,60,30.07,29.79,18,2,18,0.00
2013-2-20,43.4,37.7,33.1,39.0,35.3,31.7,98,91,77,30.11,30.06,15,1,15,0.09
2013-2-21,42.5,36.1,36.2,39.4,24.5,-99.9,98,83,86,30.15,30.07,28,-91,28,0.02
2013-2-22,43.7,35.4,37.2,41.8,20.1,-99.9,100,79,83,30.14,29.79,37,-124,37,0.36
2013-2-23,47.9,37.7,37.2,39.3,24.8,-99.9,92,76,65,30.44,29.98,20,-80,20,0.00
2013-2-24,45.4,38.5,38.7,39.5,25.3,-99.9,90,75,70,30.45,30.07,15,-83,18,0.00
2013-2-25,50.0,43.1,39.5,50.0,37.6,29.9,93,76,49,30.37,29.97,14,8,33,0.12
2013-2-26,50.0,42.9,38.6,50.0,34.8,31.3,86,71,50,30.42,30.26,7,4,19,0.00
2013-2-27,48.9,43.0,37.9,43.6,40.3,35.6,98,91,75,30.37,30.27,3,1,14,0.63
2013-2-28,50.7,46.1,41.8,50.0,45.5,40.8,98,91,50,30.40,30.25,4,2,12,0.29
2013-3-1,57.4,47.5,49.9,51.1,32.4,-99.9,97,77,77,30.44,30.34,22,-110,22,0.07
2013-3-2,55.2,43.0,37.3,48.2,29.9,-99.9,96,79,73,30.34,30.12,24,-92,24,0.12
2013-3-3,48.2,39.5,31.5,37.4,34.1,29.5,97,82,56,30.36,30.26,14,2,14,0.02
2013-3-4,54.3,40.9,27.5,36.2,27.6,22.5,97,65,35,30.36,29.98,18,3,18,0.00
2013-3-5,50.9,40.6,40.8,39.2,20.2,-99.9,89,58,41,29.98,29.77,17,-95,18,0.00
2013-3-6,43.5,35.8,38.5,41.0,21.8,-99.9,97,81,84,29.97,29.62,21,-118,22,0.51
2013-3-7,51.2,39.0,35.6,43.5,26.6,-99.9,100,81,68,30.15,29.97,9,-96,9,0.20
2013-3-8,51.7,40.1,29.4,41.9,36.5,28.9,99,88,64,30.31,30.14,14,2,14,0.01
2013-3-9,54.2,42.4,31.7,40.6,35.6,30.8,98,79,43,30.56,30.31,15,2,15,0.01
2013-3-10,44.8,39.2,36.5,42.2,31.5,-99.9,97,86,85,30.57,30.49,6,-46,6,0.05
2013-3-11,50.9,41.4,38.4,45.6,31.2,-99.9,100,84,75,30.51,30.24,9,-79,9,0.08
2013-3-12,53.6,44.2,45.9,49.5,28.4,-99.9,96,78,76,30.24,30.15,28,-126,28,0.00
2013-3-13,51.7,47.1,48.6,50.6,39.6,-99.9,98,89,88,30.27,30.15,19,-59,19,0.16
2013-3-14,52.4,44.0,46.6,50.6,32.7,-99.9,100,86,83,30.23,30.09,15,-99,15,0.08
2013-3-15,57.4,47.2,46.9,51.0,36.5,-99.9,98,82,76,30.28,30.20,16,-76,16,0.01
2013-3-16,48.9,41.4,38.7,45.4,30.1,-99.9,96,80,74,30.20,29.95,34,-73,34,0.11
2013-3-17,45.2,39.0,37.7,36.1,29.6,-99.9,91,78,64,30.27,30.04,28,-20,28,0.00
2013-3-18,50.5,38.5,36.4,38.5,21.6,-99.9,91,68,46,30.30,30.20,25,-92,25,0.00
2013-3-19,55.1,42.0,32.5,40.7,33.9,26.6,96,77,34,30.29,29.66,20,3,21,0.24
2013-3-20,48.9,39.8,38.1,47.5,26.8,-99.9,97,79,74,30.09,29.46,41,-82,41,0.41
2013-3-21,44.7,35.8,32.7,36.7,27.8,-99.9,98,83,57,30.29,30.09,23,-41,23,0.13
2013-3-22,45.7,34.8,31.2,37.9,26.0,-99.9,100,82,56,30.45,30.29,11,-47,11,0.12
2013-3-23,50.4,38.5,30.6,32.2,28.9,24.9,93,71,40,30.46,30.37,12,1,12,0.00
2013-3-24,55.6,42.3,29.7,34.1,29.7,26.8,93,65,35,30.37,30.19,13,2,13,0.00
2013-3-25,61.9,49.3,35.6,37.9,30.4,26.2,71,50,32,30.19,29.99,13,2,13,0.00
2013-3-26,59.8,49.1,44.7,41.6,31.8,-99.9,72,58,41,30.08,30.01,12,-43,12,0.00
2013-3-27,55.6,47.4,43.5,48.9,37.8,-99.9,95,77,61,30.05,29.99,11,-30,11,0.03
2013-3-28,60.7,47.7,42.3,49.6,38.5,-99.9,97,82,60,30.21,30.04,16,-44,16,0.04
2013-3-29,64.5,49.6,42.9,49.1,35.9,-99.9,96,71,48,30.31,30.21,15,-60,15,0.00
2013-3-30,68.3,52.5,39.1,48.0,39.6,-99.9,100,69,43,30.31,30.12,14,-28,14,0.00
2013-3-31,70.7,54.4,40.9,48.2,41.1,-99.9,100,68,44,30.12,29.96,14,-26,14,0.00
2013-4-1,63.4,51.0,44.3,50.9,45.1,-99.9,100,83,60,30.22,30.02,16,-8,16,0.00
2013-4-2,54.1,45.5,47.1,49.1,32.5,-99.9,95,80,83,30.26,30.20,11,-96,11,0.00
2013-4-3,61.4,52.5,42.2,48.5,45.5,41.4,98,79,55,30.25,30.00,12,1,12,0.00
2013-4-4,55.6,49.7,47.5,54.6,42.9,-99.9,98,87,80,30.00,29.70,18,-43,18,0.21
2013-4-5,54.9,47.7,47.3,50.4,39.4,-99.9,97,86,81,29.94,29.80,28,-56,28,0.67
2013-4-6,49.7,43.4,42.7,46.8,35.4,-99.9,96,87,80,30.01,29.77,31,-58,31,0.61
2013-4-7,42.7,40.9,38.7,41.7,39.9,37.7,97,96,95,29.96,29.54,17,2,17,1.37
2013-4-8,53.7,45.7,40.3,46.9,42.9,39.0,98,90,69,30.34,29.96,12,1,12,0.05
2013-4-9,53.7,47.8,42.0,46.1,42.9,40.9,96,84,64,30.42,30.25,11,2,11,0.00
2013-4-10,55.7,45.7,46.5,49.9,30.4,-99.9,96,73,67,30.32,30.00,33,-90,33,0.16
2013-4-11,51.9,45.7,42.1,45.2,41.7,38.7,95,86,72,30.37,30.25,17,3,17,0.14
2013-4-12,45.7,42.1,38.3,42.5,39.2,35.9,97,90,76,30.25,29.77,31,3,31,0.28
2013-4-13,47.1,38.0,37.1,40.6,28.5,-99.9,97,82,76,30.07,29.83,35,-56,35,0.32
2013-4-14,53.1,42.5,36.2,41.6,38.0,33.3,98,86,49,30.09,29.98,16,2,16,0.50
2013-4-15,54.6,43.1,36.3,42.0,38.9,35.5,98,87,55,30.24,30.02,22,2,22,0.07
2013-4-16,54.5,43.2,33.7,42.5,37.2,33.1,98,81,52,30.46,30.24,13,2,13,0.00
2013-4-17,57.7,47.4,36.5,43.4,36.9,25.2,92,70,30,30.53,30.46,19,3,19,0.00
2013-4-18,49.7,45.7,41.6,47.3,42.4,37.8,96,88,77,30.52,30.29,14,3,14,0.24
2013-4-19,53.2,49.3,46.8,51.4,48.0,45.7,97,96,91,30.29,30.13,20,5,20,0.70
2013-4-20,52.4,45.2,45.0,49.7,35.7,-99.9,96,84,79,30.35,30.26,25,-58,25,0.02
2013-4-21,51.6,45.7,40.4,46.5,42.2,38.1,94,87,73,30.42,30.29,19,3,19,0.12
2013-4-22,58.9,47.6,34.5,44.2,35.3,25.0,98,67,28,30.57,30.42,18,3,18,0.00
2013-4-23,61.9,49.7,35.8,39.5,34.4,28.1,92,60,29,30.48,30.29,16,2,16,0.00
2013-4-24,68.5,55.0,38.9,42.5,36.7,31.4,90,55,26,30.38,30.11,14,2,14,0.00
2013-4-25,75.7,57.4,40.8,44.4,38.8,33.9,85,53,28,30.19,30.08,12,2,12,0.00
2013-4-26,67.8,56.3,43.4,49.8,45.2,40.7,97,70,40,30.30,30.19,18,2,18,0.00
2013-4-27,57.0,52.5,49.6,49.7,43.7,37.1,93,73,52,30.28,30.22,19,4,19,0.11
2013-4-28,56.1,50.8,46.6,48.0,44.3,39.5,93,80,58,30.26,30.02,28,7,28,0.03
2013-4-29,53.5,45.3,38.8,47.0,40.5,32.9,96,84,51,30.23,29.97,24,4,24,0.33
2013-4-30,56.5,44.7,37.0,38.7,34.4,27.5,93,70,38,30.50,30.23,15,2,15,0.00
2013-5-1,64.3,50.0,34.7,38.7,34.2,29.4,91,59,30,30.63,30.50,15,2,15,0.00
2013-5-2,67.6,54.9,39.5,45.8,40.7,35.8,92,61,39,30.59,30.41,16,3,17,0.00
2013-5-3,71.3,58.6,46.8,50.0,44.1,39.5,83,60,39,30.44,30.27,16,3,16,0.00
2013-5-4,77.4,63.4,45.8,50.2,44.7,37.3,92,55,26,30.28,30.03,19,3,19,0.00
2013-5-5,82.7,67.2,49.5,50.8,45.6,40.7,80,50,23,30.03,29.81,18,3,18,0.00
2013-5-6,86.8,69.5,51.9,48.9,45.0,36.7,76,45,19,29.89,29.78,12,2,12,0.00
2013-5-7,72.7,59.0,50.3,54.9,51.1,48.3,94,76,50,30.06,29.85,14,3,14,0.00
2013-5-8,69.5,56.0,49.9,54.4,50.8,48.0,96,84,58,30.19,30.06,9,1,9,0.00
2013-5-9,70.7,57.3,48.2,56.4,51.6,47.3,98,83,54,30.27,30.17,12,2,12,0.00
2013-5-10,79.0,64.1,49.0,57.4,53.3,47.8,97,71,40,30.25,30.15,11,1,11,0.00
2013-5-11,82.3,66.8,54.3,59.5,52.1,44.0,88,61,40,30.23,30.03,12,2,13,0.00
2013-5-12,70.3,62.5,56.6,59.4,57.1,53.0,96,83,57,30.15,30.06,13,2,13,0.42
2013-5-13,64.3,55.1,47.2,58.1,51.5,42.4,97,88,65,30.24,29.97,40,5,40,0.35
2013-5-14,64.1,53.0,43.5,44.8,40.4,29.3,92,66,30,30.29,30.17,14,2,15,0.00
2013-5-15,62.9,52.8,44.9,50.5,45.2,39.8,96,77,51,30.18,30.07,18,2,18,0.07
2013-5-16,71.3,59.3,51.2,54.1,50.7,45.7,97,76,42,30.07,29.91,23,2,23,0.01
2013-5-17,60.9,54.9,51.1,52.0,49.8,44.3,97,84,60,30.08,30.01,15,3,15,0.07
2013-5-18,58.9,54.0,50.5,50.4,48.4,46.6,92,82,69,30.32,30.11,5,2,13,0.14
2013-5-19,64.5,55.8,50.5,51.6,49.8,48.0,95,81,60,30.45,30.32,14,2,14,0.00
2013-5-20,67.3,55.2,47.5,52.3,48.5,46.2,96,80,51,30.40,29.94,12,2,12,0.00
2013-5-21,57.4,50.0,44.7,48.5,44.8,41.4,96,83,60,29.94,29.83,22,4,22,0.35
2013-5-22,51.0,45.4,40.6,47.1,43.5,39.5,96,93,84,29.99,29.92,12,2,12,0.47
2013-5-23,55.2,48.2,43.2,48.2,45.2,42.1,98,90,64,30.08,29.98,15,2,15,0.16
2013-5-24,61.4,51.9,46.2,49.6,46.7,43.6,96,83,55,30.11,30.02,16,2,16,0.03
2013-5-25,63.4,54.1,47.6,48.8,46.9,44.0,96,78,52,30.10,30.01,13,2,13,0.00
2013-5-26,63.8,54.6,49.4,53.6,50.3,47.2,96,86,64,30.04,29.99,14,2,14,0.08
2013-5-27,59.4,54.0,48.1,56.2,52.2,47.3,98,93,84,30.02,29.76,12,2,12,0.34
2013-5-28,59.3,53.9,50.5,53.2,50.7,48.9,96,89,73,29.94,29.82,16,3,16,0.06
2013-5-29,59.5,52.9,47.8,52.0,48.7,46.7,97,86,69,30.03,29.74,26,4,26,0.10
2013-5-30,59.9,52.7,47.2,49.0,46.7,44.7,94,81,61,30.31,30.03,23,5,23,0.00
2013-5-31,68.5,56.3,48.8,49.2,46.5,42.6,94,72,42,30.40,30.29,11,2,11,0.00
2013-6-1,74.0,59.8,49.6,51.8,48.0,40.4,90,68,36,30.29,30.09,18,2,18,0.00
2013-6-2,69.3,59.3,52.6,51.8,49.5,46.7,91,71,48,30.14,30.10,13,2,13,0.00
2013-6-3,72.8,58.7,47.9,54.3,50.6,46.5,95,77,44,30.18,30.11,11,2,11,0.00
2013-6-4,80.7,65.1,51.2,57.6,52.9,48.8,93,68,37,30.18,30.07,13,2,13,0.00
2013-6-5,77.8,66.4,53.0,57.8,53.4,44.7,84,64,46,30.13,30.07,13,2,13,0.00
2013-6-6,79.5,65.8,52.1,57.8,52.0,40.6,94,64,35,30.10,30.05,13,2,13,0.00
2013-6-7,68.5,60.7,54.9,56.2,49.5,41.8,83,67,45,30.19,30.07,21,3,21,0.00
2013-6-8,67.9,58.6,52.4,52.5,49.9,46.5,83,73,56,30.23,30.14,15,3,15,0.00
2013-6-9,69.2,58.2,51.6,50.7,47.7,44.6,85,69,45,30.16,30.06,14,3,14,0.00
2013-6-10,69.8,58.2,49.1,50.1,46.3,40.5,81,66,41,30.09,29.93,14,4,14,0.00
2013-6-11,63.9,56.2,49.2,47.7,45.7,42.7,85,69,50,30.17,30.00,28,6,28,0.00
2013-6-12,65.3,56.0,51.1,51.3,47.5,45.3,94,75,53,30.21,30.17,21,3,21,0.02
2013-6-13,68.8,57.9,50.5,52.5,49.3,44.3,96,75,44,30.28,30.20,15,2,15,0.01
2013-6-14,67.3,57.3,52.1,51.0,49.0,47.7,87,75,54,30.29,30.10,16,3,16,0.00
2013-6-15,80.8,63.4,46.6,56.6,51.4,45.1,95,68,32,30.10,29.97,13,2,13,0.00
2013-6-16,72.8,62.4,53.0,62.5,53.8,49.9,90,75,53,30.15,30.05,14,2,14,0.04
2013-6-17,76.0,63.0,53.8,56.2,52.8,49.5,92,72,41,30.15,29.95,21,2,21,0.01
2013-6-18,71.5,61.5,54.8,54.8,50.4,43.5,93,70,39,30.04,29.92,20,3,20,0.00
2013-6-19,64.5,57.2,51.0,55.8,51.2,47.3,93,81,56,30.07,29.97,18,3,18,0.08
2013-6-20,59.0,55.2,52.6,53.0,50.9,49.3,94,86,73,30.17,30.02,23,5,23,0.16
2013-6-21,68.7,58.3,51.6,54.3,52.1,49.7,97,81,54,30.22,30.17,9,1,9,0.04
2013-6-22,78.3,64.6,49.6,57.3,52.9,48.6,97,69,43,30.18,29.90,12,2,13,0.00
2013-6-23,69.5,63.8,58.8,63.8,59.5,55.0,96,86,73,29.89,29.64,11,1,11,0.19
2013-6-24,68.3,60.3,55.5,59.4,56.2,53.8,98,87,65,29.76,29.63,19,2,19,0.22
2013-6-25,72.8,60.3,54.7,62.3,56.1,53.6,97,87,55,29.92,29.72,26,2,26,0.44
2013-6-26,70.5,62.2,55.9,60.4,57.5,54.8,97,85,65,30.13,29.90,16,2,16,0.03
2013-6-27,72.8,64.2,58.7,64.5,60.7,57.6,97,89,69,30.25,30.09,9,1,9,0.10
2013-6-28,85.7,73.0,61.2,67.0,63.2,59.9,97,74,44,30.24,30.09,15,2,15,0.00
2013-6-29,87.3,73.5,64.3,63.9,61.2,57.5,91,68,43,30.15,30.03,10,2,10,0.00
2013-6-30,93.0,77.0,60.3,68.5,64.1,58.8,96,68,36,30.06,29.89,12,2,12,0.00
2013-7-1,92.0,78.0,66.1,67.3,63.4,59.1,86,63,41,30.06,29.94,11,2,11,0.00
2013-7-2,82.0,70.5,60.7,63.9,58.1,50.3,91,68,37,30.14,30.06,16,3,16,0.00
2013-7-3,79.5,69.0,60.7,57.1,50.6,40.5,69,52,43,30.19,30.08,17,4,17,0.00
2013-7-4,70.3,61.6,56.5,55.4,53.6,50.7,88,76,57,30.17,30.08,13,2,13,0.00
2013-7-5,74.9,62.8,55.4,56.6,54.5,52.6,91,76,52,30.09,30.00,8,2,11,0.00
2013-7-6,77.7,64.7,52.7,59.0,55.4,51.3,96,74,44,30.04,29.92,14,2,14,0.00
2013-7-7,76.3,64.3,56.3,60.4,56.9,53.6,93,78,52,30.01,29.94,13,2,13,0.00
2013-7-8,79.3,64.9,55.1,60.1,56.0,52.2,92,75,49,30.14,30.01,13,2,13,0.00
2013-7-9,83.3,70.3,56.2,61.5,57.0,51.1,94,65,42,30.16,30.04,17,3,17,0.00
2013-7-10,72.3,62.2,55.5,58.3,54.8,50.2,93,78,54,30.12,29.99,11,2,11,0.00
2013-7-11,70.3,60.3,52.8,53.2,49.5,47.0,84,69,48,30.14,30.04,14,2,14,0.00
2013-7-12,66.7,58.7,52.6,53.8,49.9,45.3,92,73,60,30.16,30.06,9,2,11,0.00
2013-7-13,75.7,62.3,48.0,55.0,51.0,46.5,96,69,40,30.25,30.16,15,2,15,0.00
2013-7-14,82.7,67.3,51.8,55.1,48.6,41.2,88,54,27,30.19,30.03,13,2,13,0.00
2013-7-15,80.1,68.2,55.3,56.2,51.5,45.6,80,57,37,30.09,29.94,16,3,16,0.00
2013-7-16,86.5,72.9,57.1,62.1,54.5,47.2,79,54,31,29.95,29.83,12,2,12,0.00
2013-7-17,68.6,63.4,56.3,62.0,57.4,54.2,93,81,69,30.25,29.94,12,3,12,0.05
2013-7-18,77.5,64.5,54.2,60.5,56.9,52.7,95,78,54,30.28,30.17,11,1,11,0.00
2013-7-19,79.8,66.2,54.5,63.0,58.5,53.1,96,78,54,30.22,30.08,13,2,13,0.00
2013-7-20,77.9,64.2,55.9,61.4,57.7,54.6,96,81,55,30.14,30.01,10,2,10,0.00
2013-7-21,76.5,63.1,54.6,61.9,57.4,53.5,97,83,56,30.03,29.96,10,2,10,0.00
2013-7-22,79.8,64.2,55.4,61.7,57.6,54.4,97,81,51,30.12,30.00,10,2,10,0.00
2013-7-23,85.0,70.0,55.4,62.3,57.8,54.2,96,69,37,30.11,30.01,13,2,13,0.00
2013-7-24,84.5,71.4,56.2,59.8,54.5,40.1,90,58,33,30.10,30.03,13,2,13,0.00
2013-7-25,84.7,70.0,53.5,57.5,51.7,43.7,86,55,27,30.14,30.07,13,2,13,0.00
2013-7-26,83.5,69.9,53.6,56.7,50.1,39.6,86,53,25,30.20,30.11,16,3,16,0.00
2013-7-27,77.1,64.4,51.7,55.1,50.8,41.2,88,63,39,30.21,30.05,9,2,12,0.00
2013-7-28,69.2,58.8,51.3,56.7,52.7,49.3,95,81,63,30.09,30.01,15,3,15,0.00
2013-7-29,76.8,62.8,53.7,56.9,54.2,50.7,91,75,49,30.07,30.01,12,1,12,0.00
2013-7-30,77.5,64.1,53.8,59.0,55.8,52.1,95,76,50,30.19,30.07,13,2,13,0.00
2013-7-31,69.3,61.4,55.4,61.8,58.0,54.1,97,89,76,30.17,30.05,9,2,9,0.00
2013-8-1,65.0,59.1,54.2,57.8,55.3,53.1,97,87,75,30.14,30.09,13,3,13,0.00
2013-8-2,61.3,59.2,57.9,58.2,56.0,53.8,96,89,79,30.19,30.12,12,2,12,0.07
2013-8-3,72.0,63.5,57.9,61.2,58.9,56.9,97,86,67,30.18,30.11,11,1,11,0.02
2013-8-4,81.5,68.5,57.8,64.3,59.9,55.6,95,76,52,30.11,29.99,11,2,13,0.00
2013-8-5,85.2,71.9,57.6,63.3,58.6,53.2,95,66,35,30.06,29.97,12,2,12,0.00
2013-8-6,87.2,70.7,55.5,61.0,56.0,45.5,95,64,27,30.05,29.96,12,2,12,0.00
2013-8-7,85.5,70.3,55.5,60.3,56.0,52.6,91,64,36,30.06,29.99,13,2,13,0.00
2013-8-8,80.8,67.5,55.8,61.1,57.8,51.4,94,73,50,30.08,29.98,13,2,13,0.00
2013-8-9,80.7,69.3,57.2,61.1,57.6,51.7,92,68,46,30.00,29.89,17,2,17,0.00
2013-8-10,77.2,67.6,59.1,64.3,61.2,57.4,96,81,61,30.06,29.94,11,2,11,0.06
2013-8-11,75.9,65.4,57.6,60.0,57.0,54.1,90,75,55,30.11,30.04,16,2,16,0.00
2013-8-12,77.2,66.6,58.6,58.9,56.4,54.2,90,71,50,30.12,30.05,14,2,14,0.00
2013-8-13,82.3,68.0,55.1,58.0,55.6,50.7,93,67,35,30.15,29.97,13,2,13,0.00
2013-8-14,80.3,67.6,58.6,61.5,57.8,54.2,94,73,42,30.03,29.96,12,2,12,0.03
2013-8-15,69.1,62.4,61.9,66.7,56.2,-99.9,97,90,87,30.05,29.97,5,-44,5,0.11
2013-8-16,82.3,71.1,62.3,66.2,61.3,49.7,98,74,34,30.07,30.00,14,2,14,0.01
2013-8-17,76.8,68.5,62.4,62.0,58.3,54.5,81,70,54,30.12,30.06,16,3,16,0.00
2013-8-18,77.3,67.1,59.5,59.9,57.4,53.2,86,72,54,30.17,30.11,16,3,16,0.00
2013-8-19,77.7,66.6,59.3,59.6,56.2,51.2,89,70,50,30.16,30.10,16,2,16,0.00
2013-8-20,75.0,65.7,58.2,57.6,52.8,48.8,75,64,50,30.21,30.11,17,4,17,0.00
2013-8-21,80.2,67.2,51.8,57.5,53.5,48.1,89,63,44,30.14,29.98,15,2,15,0.00
2013-8-22,81.8,69.7,55.3,60.1,55.7,51.0,87,63,44,29.99,29.85,11,2,11,0.00
2013-8-23,72.2,65.0,59.7,66.3,57.1,54.3,100,76,62,29.94,29.88,13,3,13,0.00
2013-8-24,74.3,63.0,57.9,59.0,50.6,-99.9,95,71,44,29.97,29.90,11,-30,11,0.01
2013-8-25,70.2,63.1,56.0,59.7,55.1,50.6,92,76,61,29.99,29.92,9,1,10,0.00
2013-8-26,73.2,61.2,58.2,59.6,49.9,-99.9,93,76,51,30.01,29.91,18,-47,18,0.03
2013-8-27,77.4,64.8,59.3,61.4,52.2,-99.9,94,72,56,30.01,29.84,13,-43,13,0.00
2013-8-28,78.5,63.1,59.5,64.4,48.3,-99.9,97,73,58,29.95,29.87,9,-78,9,0.28
2013-8-29,75.8,61.9,62.7,67.3,53.5,-99.9,100,87,72,30.08,29.89,28,-61,28,1.30
2013-8-30,78.7,67.2,60.1,63.2,58.6,53.2,97,76,44,30.21,30.08,11,2,11,0.00
2013-8-31,80.9,66.6,52.9,61.1,57.6,51.8,97,75,48,30.13,29.88,13,2,13,0.00
2013-9-1,79.8,65.4,57.8,61.3,51.7,-99.9,96,70,52,29.94,29.85,15,-43,15,0.00
2013-9-2,80.1,69.1,58.8,60.9,57.8,55.0,89,69,48,29.99,29.91,15,2,15,0.00
2013-9-3,74.6,62.6,59.6,65.1,55.6,-99.9,97,85,57,30.08,29.98,8,-30,8,0.14
2013-9-4,67.5,60.0,57.8,62.1,52.6,-99.9,100,86,82,30.11,30.04,11,-44,11,0.01
2013-9-5,67.1,57.1,58.9,62.6,47.1,-99.9,97,85,83,30.10,29.97,17,-78,17,1.05
2013-9-6,69.7,58.5,58.3,64.3,50.3,-99.9,100,87,78,30.17,30.00,15,-61,15,1.17
2013-9-7,75.3,59.5,59.5,63.2,47.4,-99.9,100,79,62,30.17,30.06,9,-79,9,0.00
2013-9-8,77.6,62.7,56.4,63.9,52.9,-99.9,100,80,60,30.16,30.07,7,-44,13,0.00
2013-9-9,77.8,62.2,57.0,63.9,52.7,-99.9,98,80,59,30.12,30.03,11,-43,11,0.00
2013-9-10,80.7,64.3,56.7,65.0,54.0,-99.9,98,78,56,30.04,29.93,13,-43,13,0.00
2013-9-11,92.7,70.3,57.7,68.9,55.6,-99.9,98,70,38,29.98,29.91,9,-44,9,0.00
2013-9-12,80.0,63.2,59.4,64.5,51.4,-99.9,97,78,53,30.04,29.95,9,-62,9,0.00
2013-9-13,64.9,57.9,58.5,61.6,49.9,-99.9,100,88,88,30.02,29.92,8,-62,8,0.00
2013-9-14,67.9,56.5,58.4,63.0,44.4,-99.9,97,83,84,29.93,29.78,8,-99,8,0.00
2013-9-15,64.3,57.0,57.9,61.7,49.7,-99.9,99,90,90,29.88,29.76,13,-61,13,0.18
2013-9-16,66.2,54.1,57.8,60.8,40.0,-99.9,96,80,82,29.99,29.87,15,-112,15,0.01
2013-9-17,62.4,54.3,54.6,53.5,42.6,-99.9,93,76,70,30.00,29.92,12,-61,12,0.00
2013-9-18,70.7,55.3,52.2,54.6,41.8,-99.9,95,73,54,30.12,29.99,11,-67,12,0.00
2013-9-19,80.5,61.8,45.2,57.1,50.4,44.1,97,70,41,30.10,29.82,6,1,11,0.00
2013-9-20,72.5,58.9,51.7,56.1,45.0,-99.9,96,69,47,29.82,29.65,18,-43,18,0.05
2013-9-21,70.3,56.1,54.6,56.8,41.8,-99.9,97,74,48,29.77,29.70,13,-78,13,0.01
2013-9-22,60.4,51.6,52.6,55.8,40.9,-99.9,95,83,77,29.81,29.64,22,-76,22,0.34
2013-9-23,58.4,51.1,50.4,55.3,42.7,-99.9,99,86,78,30.03,29.81,20,-59,20,0.27
2013-9-24,60.7,48.8,48.5,52.6,38.2,-99.9,98,81,64,30.02,29.90,17,-68,17,0.06
2013-9-25,58.1,45.5,45.2,52.0,33.8,-99.9,98,83,70,30.09,29.91,7,-96,10,0.03
2013-9-26,62.7,50.0,41.5,51.4,46.4,40.7,99,88,61,30.20,30.09,12,1,12,0.01
2013-9-27,55.3,48.3,49.0,52.8,37.8,-99.9,96,83,84,30.19,29.92,19,-77,19,0.06
2013-9-28,59.7,50.1,50.4,57.6,40.3,-99.9,97,87,91,29.92,29.42,28,-75,28,2.18
2013-9-29,53.6,44.6,50.3,52.4,29.2,-99.9,96,80,83,29.64,29.23,35,-130,35,0.76
2013-9-30,54.4,44.1,46.8,52.0,30.3,-99.9,96,81,85,30.00,29.52,25,-109,25,0.93
2013-10-1,54.5,44.0,45.0,50.0,32.0,-99.9,97,83,80,30.19,29.98,20,-97,20,0.30
2013-10-2,52.7,43.7,46.7,48.3,29.9,-99.9,97,81,81,30.24,30.12,13,-115,13,0.36
2013-10-3,55.4,43.6,41.9,49.2,30.1,-99.9,100,81,76,30.52,30.24,5,-113,5,0.03
2013-10-4,63.5,49.2,38.0,50.6,45.1,37.2,98,87,57,30.54,30.41,9,1,9,0.01
2013-10-5,70.5,54.6,42.7,53.4,47.6,41.6,97,79,43,30.42,30.18,10,1,10,0.00
2013-10-6,75.1,57.8,45.9,52.1,47.2,42.6,95,72,33,30.18,29.94,16,2,16,0.00
2013-10-7,58.1,48.2,51.1,51.4,34.3,-99.9,96,76,62,30.08,29.97,28,-92,28,0.19
2013-10-8,53.7,43.7,42.1,49.3,29.4,-99.9,97,79,76,30.14,30.03,19,-112,19,0.36
2013-10-9,59.7,46.9,36.9,47.5,42.7,36.1,98,86,61,30.20,30.02,8,1,8,0.01
2013-10-10,58.2,50.0,44.0,50.0,46.2,41.9,97,87,66,30.14,30.00,9,1,9,0.05
2013-10-11,55.6,50.6,47.6,50.7,48.6,46.8,98,93,78,30.20,30.13,6,1,6,0.37
2013-10-12,55.6,49.5,45.5,49.8,47.2,43.8,98,92,79,30.27,30.13,13,1,13,0.13
2013-10-13,57.2,46.1,40.1,49.7,44.2,39.3,98,93,75,30.43,30.27,6,1,6,0.00
2013-10-14,59.2,45.9,36.4,49.9,43.0,35.7,98,90,65,30.49,30.43,8,1,8,0.01
2013-10-15,59.7,47.7,37.5,50.9,44.6,36.8,98,90,67,30.45,30.24,8,1,8,0.01
2013-10-16,52.9,47.2,42.0,48.7,45.7,41.2,98,94,85,30.27,30.21,11,1,11,0.00
2013-10-17,57.2,48.0,43.0,50.5,46.1,42.1,98,93,76,30.34,30.27,5,0,7,0.01
2013-10-18,57.9,45.5,38.1,52.0,44.1,37.6,99,95,79,30.31,30.21,8,1,8,0.01
2013-10-19,47.4,44.7,41.8,46.8,44.2,41.2,99,98,98,30.26,30.21,5,0,5,0.01
2013-10-20,49.1,45.0,42.4,47.7,44.4,42.1,99,98,93,30.27,30.21,5,0,5,0.00
2013-10-21,56.7,45.7,41.5,50.9,44.6,41.2,99,96,80,30.24,30.16,6,0,6,0.00
2013-10-22,56.8,46.4,41.9,52.1,45.4,41.6,99,97,83,30.18,30.09,8,1,8,0.01
2013-10-23,58.7,46.5,40.5,52.8,45.4,40.2,99,96,79,30.12,30.04,8,0,8,0.02
2013-10-24,48.7,45.3,40.5,48.4,44.9,39.9,99,99,98,30.19,30.08,7,0,7,0.01
2013-10-25,50.9,46.8,42.3,50.2,46.3,41.8,99,98,96,30.38,30.19,6,0,6,0.01
2013-10-26,48.9,46.6,42.3,46.4,45.1,42.0,99,94,90,30.40,30.26,11,1,11,0.00
2013-10-27,51.2,46.2,42.0,48.4,45.0,41.5,98,95,89,30.26,29.97,13,1,13,0.05
2013-10-28,55.9,48.3,40.1,45.6,38.8,33.8,99,72,45,30.01,29.95,17,3,17,0.01
2013-10-29,57.1,44.4,35.6,38.8,35.5,31.8,90,72,45,30.10,30.00,12,2,12,0.00
2013-10-30,55.5,47.3,38.0,46.4,40.6,34.6,89,78,63,30.20,30.09,14,2,23,0.00
2013-10-31,52.2,49.7,46.4,51.2,48.1,43.1,97,94,79,30.32,30.17,11,1,11,0.05
2013-11-1,63.0,46.3,49.6,53.0,27.1,-99.9,98,72,63,30.34,29.90,7,-154,7,0.00
2013-11-2,52.6,46.2,43.8,50.3,36.6,-99.9,98,80,71,29.95,29.58,44,-45,44,0.44
2013-11-3,50.9,43.7,38.7,41.4,39.2,35.9,93,84,58,30.18,29.95,14,2,14,0.00
2013-11-4,50.6,42.4,35.6,40.0,37.5,34.6,98,83,58,30.25,30.12,8,1,8,0.02
2013-11-5,52.2,47.3,42.3,49.5,44.0,39.7,98,89,76,30.32,30.07,20,4,20,0.10
2013-11-6,52.5,47.0,42.4,46.7,44.4,41.6,97,91,77,30.38,30.09,12,1,13,0.11
2013-11-7,48.4,47.0,45.7,46.9,45.4,44.6,97,94,89,30.09,29.79,26,7,26,1.18
2013-11-8,52.7,47.6,43.1,45.2,43.9,41.7,96,87,73,30.22,30.04,15,4,15,0.00
2013-11-9,49.2,43.9,37.6,45.4,42.4,36.8,98,95,85,30.22,30.13,7,1,7,0.09
2013-11-10,49.3,45.8,43.5,46.8,44.5,42.9,98,95,90,30.20,30.14,8,1,8,0.00
2013-11-11,63.4,49.9,38.5,50.6,42.5,38.0,99,79,51,30.22,30.06,15,2,15,0.01
2013-11-12,57.6,53.2,48.4,53.8,49.0,40.8,97,86,55,30.43,30.09,13,2,13,0.11
2013-11-13,55.1,51.0,46.9,50.6,47.6,44.7,95,88,74,30.50,30.37,15,2,15,0.00
2013-11-14,47.4,44.4,39.6,46.1,43.5,39.1,98,97,92,30.37,30.12,8,0,9,0.26
2013-11-15,46.6,42.9,40.6,45.2,41.8,40.1,99,96,90,30.12,29.40,23,6,23,0.19
2013-11-16,45.5,42.8,39.1,42.9,39.0,37.6,96,87,75,29.84,29.42,16,4,16,0.00
2013-11-17,48.7,45.2,42.0,46.7,43.2,38.4,98,93,85,29.98,29.84,21,5,26,0.21
2013-11-18,52.5,48.3,45.5,50.0,47.3,44.8,98,96,90,29.98,29.62,21,3,21,0.88
2013-11-19,53.0,42.8,36.3,50.9,39.1,25.7,96,87,63,30.12,29.63,26,4,26,0.10
2013-11-20,42.1,34.6,29.0,31.9,28.4,25.6,95,79,55,30.57,30.12,14,2,14,0.00
2013-11-21,42.6,32.6,25.4,32.2,27.2,24.2,97,82,49,30.73,30.57,11,1,11,0.00
2013-11-22,46.1,34.8,26.7,29.4,26.7,23.9,93,74,44,30.72,30.53,9,1,9,0.00
2013-11-23,51.9,37.4,28.4,35.3,29.8,23.4,91,75,48,30.52,30.26,10,1,10,0.00
2013-11-24,50.1,37.9,28.9,38.8,33.5,27.6,96,85,63,30.32,30.23,6,1,6,0.00
2013-11-25,56.6,42.8,33.2,41.2,35.0,29.0,92,75,50,30.39,30.32,6,1,6,0.00
2013-11-26,59.7,43.5,32.1,42.8,34.9,28.4,91,72,51,30.33,30.16,7,1,7,0.00
2013-11-27,56.3,45.7,38.5,44.0,38.6,34.6,92,77,53,30.17,30.02,7,1,7,0.00
2013-11-28,55.4,42.3,33.9,44.3,37.4,31.7,96,83,64,30.25,30.08,6,1,6,0.00
2013-11-29,45.9,44.2,39.4,44.8,41.3,35.5,97,90,74,30.39,30.25,9,1,9,0.04
2013-11-30,50.0,46.6,42.7,47.3,44.5,41.6,97,92,84,30.42,30.17,12,2,12,0.17
2013-12-1,52.6,49.8,43.6,50.7,47.1,37.5,98,91,79,30.17,29.83,35,11,38,0.07
2013-12-2,43.5,38.1,33.8,37.8,33.8,32.1,97,85,71,30.12,29.86,31,3,31,0.06
2013-12-3,37.7,32.8,27.8,33.5,27.2,24.2,97,80,61,30.38,30.12,14,3,14,0.01
2013-12-4,36.9,28.5,22.8,26.9,23.3,20.7,94,81,58,30.43,30.37,9,1,9,0.00
2013-12-5,32.5,26.6,22.1,22.7,18.0,13.3,83,70,55,30.40,30.26,18,1,18,0.00
2013-12-6,30.0,25.2,18.6,13.7,9.7,7.4,68,52,39,30.30,30.21,18,3,18,0.00
2013-12-7,28.5,20.1,13.3,13.2,8.1,3.0,81,61,35,30.51,30.30,8,2,10,0.00
2013-12-8,31.6,22.6,14.4,15.6,12.9,8.7,80,67,48,30.66,30.51,9,1,9,0.00
2013-12-9,32.0,26.4,18.1,26.1,19.2,13.6,88,74,61,30.67,30.57,4,0,4,0.00
2013-12-10,38.8,33.5,29.1,33.8,30.6,26.1,95,89,80,30.58,30.48,7,0,7,0.00
2013-12-11,40.8,32.5,27.2,35.5,30.3,26.2,97,92,75,30.49,30.24,8,0,8,0.00
2013-12-12,41.3,35.7,28.5,40.5,34.4,27.8,98,95,78,30.25,30.13,9,0,9,0.24
2013-12-13,46.6,44.1,41.0,46.1,43.5,40.1,98,98,97,30.49,30.21,10,1,10,0.06
2013-12-14,46.8,44.1,40.8,43.8,42.5,40.0,98,94,88,30.51,30.39,13,2,13,0.00
2013-12-15,51.1,47.6,44.8,48.0,45.9,43.1,98,94,88,30.52,30.39,16,3,16,0.10
2013-12-16,46.2,42.2,36.1,44.3,41.4,35.6,98,97,92,30.56,30.33,8,1,8,0.04
2013-12-17,44.3,39.1,34.8,42.8,38.3,34.3,99,97,89,30.33,30.18,11,1,11,0.01
2013-12-18,43.5,39.0,31.8,42.3,37.9,30.5,98,95,90,30.22,30.09,13,1,13,0.09
2013-12-19,37.4,31.2,26.9,32.3,29.1,25.4,97,92,70,30.42,30.20,6,1,6,0.00
2013-12-20,43.2,34.8,28.9,42.7,33.7,26.5,99,95,86,30.28,29.79,11,2,11,0.31
2013-12-21,44.2,42.2,39.5,43.9,41.8,38.9,99,99,98,30.24,29.91,13,2,13,0.41
2013-12-22,47.9,46.2,43.5,47.6,45.9,43.2,99,99,97,30.37,30.23,16,3,16,0.37
2013-12-23,51.1,47.2,42.7,48.2,44.5,39.7,98,90,72,30.58,30.21,32,6,32,0.06
2013-12-24,47.0,39.8,31.8,41.2,37.5,31.0,98,91,73,30.68,30.58,9,1,9,0.00
2013-12-25,42.9,33.9,28.8,38.4,32.8,28.3,99,96,82,30.60,30.45,7,1,7,0.01
2013-12-26,45.2,36.1,31.0,41.1,34.7,30.5,99,95,80,30.47,30.27,6,1,6,0.00
2013-12-27,43.7,38.6,31.6,43.2,38.1,31.1,99,98,91,30.44,30.21,9,1,9,0.07
2013-12-28,45.9,41.3,34.2,44.5,40.6,33.4,99,97,91,30.59,30.44,7,0,7,0.00
2013-12-29,41.1,36.0,31.0,40.4,35.5,30.4,99,98,95,30.55,30.37,5,0,5,0.01
2013-12-30,45.5,38.3,34.5,42.4,37.8,34.1,99,98,88,30.39,30.20,13,1,13,0.02
2013-12-31,44.9,42.3,36.9,44.4,41.2,36.4,99,96,88,30.45,30.27,5,0,8,0.06
2014-1-1,42.7,38.4,33.1,42.1,38.0,32.8,99,99,98,30.47,30.31,6,0,6,0.02
2014-1-2,47.6,43.7,39.9,44.8,42.6,39.6,99,96,86,30.32,29.97,19,1,19,0.64